FALCON 9 R/B, 42819

Orbit data source: Space-Track

FALCON 9 R/B, 42819 is space debris in HEO originally from a launch on Wed, 05 Jul 2017 UTC launched from the Air Force Eastern Test Range (AFETR). Debris objects in space refer to the collection of defunct objects orbiting the Earth. Examples of debris include non-operational satellites, rocket bodies, and fragments generated from explosions, collisions, or faulty payload assembly.

Not visible in the next 10 days
FALCON 9 R/B details
Identifier
42819, 2017-041B
Orbit
HEO
Last TLE update1 day ago
Origin
Flag of USSpaceX (US)
ManufacturerSpaceX
MissionSpacecraft
Bus & MotorF9ST2, Unknown motor
Mass~4,000 kg wet, ~4,000 kg dry
Launch date (UTC)
2017-07-05 (7 years ago)
Launch vehicleUnknown
Launch site
Air Force Eastern Test Range (AFETR)
Object type
Payload
Rocket body
Debris
Shape & HBRCyl, 15.53 m
Radar Cross Section39.980 m², Large (>1 m²)

Expand to show TLE details & history

TLE from 1 day ago
0 FALCON 9 R/B
1 42819U 17041B   24360.34266286  .00002447  00000-0  18653-2 0  9991
2 42819  26.3993 355.5469 7477255 141.2072 308.3366  2.02238071 52370
Epoch: 2024-12-25T08:13Z
Definitive object data (Epoch: 2024-12-25T08:13:26.071Z)
Latitude-0.00003°
Longitude137.85093°
Altitude21,476.733 km
Speed3.678 km/s
True Right ascension23h 42m 11s
True Declination0° 00' 00"
Sunlit
Object was in daylight at TLE epoch
Visualization TLE readout
Latitude-20.9232°
Longitude87.13721°
Altitude35,479.382 km
Speed1.989 km/s
Apparent Right ascension20h 44m 27s
Apparent Declination-24° 44' 09"
Sunlit
Object is in daylight
Visualization observer readout
Local Sidereal Time12:47:52
Azimuth92.677° ESE
Elevation-37.428°
Doppler factor1
Orbital elements
Apogee altitude39,792.507 km
Perigee altitude286.34 km
Semi-major axis26,417.56 km
Eccentricity0.7477255
Inclination26.3993°
RAAN355.5469°
Arg. of periapsis141.2072°
True anomaly218.77808°
Mean anomaly308.3366°
Eccentric anomaly265.62019°
Mean motion0.50548 °/min
BSTAR0.0018653
Orbital period712.19 mins
Loading maneuver chart data...
Loading historical data...
Loading historical data...
Loading historical data...
Loading historical data...
Loading historical data...
Loading historical data...
Loading historical data...
Other satellites on launch #41 in the year 2017 (2017-07-05 UTC)

FALCON 9 R/B Visibility forecast

Observer location: undefined°, undefined

FALCON 9 R/B is not visible in the next 10 days
Span
Click to sort rows by Start time (UTC) header in descending order
Start Az.
Max El. time (UTC)
Max El. Az.
Max El.
End time (UTC)
End Az.
|